Hlavní strana
METAR-TAF:

METAR-TAF

Letiště :

Pell City, Alabama, Spojené státy americké

zeměpisná šířka: 33-33-32N, zeměpisná délka: 086-14-57W, výška: 148 m

Aktuální stav počasí

Zpráva byla vytvořena před 12 minutami, v 17:15 UTC
Severní vítr 7 kt
Teplota 7°C
Vlhkost vzduchu 93%
Tlak 1023 hPa
Viditelnost: 8.0 km
kouřmo

METAR: KPLR 151715Z AUTO 36007KT 5SM BR 07/06 A3022 RMK A01

Čas: 11:27 (17:27 UTC)


TAF: chybějící

Stav a předpovědi počasí z více než 4 000 letišť (zprávy METAR a TAF).

Červené a žluté tečky na mapě představují dostupné meteorologické stanice.

Když kurzor umístíte na tečku, zobrazí se název stanice.

Pak kliknutím zobrazíte stav a předpověď počasí.

Chcete-li změnit mapu, kliknutím na zelené tlačítko se znaménkem +mapu přiblížíte, kliknutím na zelené tlačítko se znaménkem – mapu oddálíte a kliknutím na zelené šipky přejdete na sousední mapy.


METAR-TAF: